CAPE
0 0 2 12 28 38 31 26 11 0 0 0 0 0 0 0 0 0 0 0 0 0 0 0 0 0 0 0 0 0 0 0 0 0 0 0 0 0 0 0 0 0 1
0 0 0 0 1 2 2 0 0 0 0 0 0 0 0 0 0 0 0 0 0 0 0 0 0 0 0 0 0 0 0 0 0 0 0 0 0 0 0 0 0 0 2
0 0 0 0 1 0 0 0 0 0 0 0 0 0 0 0 0 0 0 0 0 0 0 0 0 0 0 0 0 0 0 0 0 0 0 0 0 0 0 0 0 0 0
0 0 0 0 0 0 0 0 0 0 0 0 0 0 0 0 0 0 0 0 0 0 0 0 0 0 0 0 0 0 0 0 0 0 0 0 0 0 0 0 0 0 0
0 0 0 0 0 0 0 0 0 0 0 0 0 0 0 0 0 0 0 0 0 0 0 0 0 0 0 0 0 0 0 0 0 0 0 0 0 0 0 0 0 0 0
0 0 0 0 0 0 0 0 0 0 0 0 0 0 0 0 0 0 0 0 0 0 0 0 0 0 0 0 0 0 0 0 0 0 0 0 0 0 3 1 1 0 0
0 0 0 0 0 0 0 0 0 0 0 0 0 0 0 0 0 0 0 0 0 0 0 0 0 0 0 0 0 0 0 0 0 0 0 0 1 1 0 1 0 2 1
0 0 0 0 0 0 0 0 0 0 0 0 0 0 0 0 0 0 0 0 0 0 0 0 0 0 0 0 0 0 0 0 0 0 0 0 0 1 0 3 2 1 0
0 0 0 0 0 0 0 0 0 0 0 0 0 0 0 0 0 0 0 0 0 0 0 0 0 0 0 0 0 0 0 0 0 0 0 1 7 18 1 0 0 1 0
0 0 0 0 0 0 0 0 0 0 0 0 0 0 0 0 0 0 0 0 0 0 0 0 0 0 0 0 1 0 0 0 0 0 0 0 0 3 0 0 1 0 3
0 0 0 0 0 0 0 0 0 0 0 0 0 0 0 0 0 0 0 0 0 0 0 0 0 0 1 2 1 0 0 0 0 0 0 0 1 0 0 0 0 0 1
0 0 0 0 0 0 0 0 0 0 0 0 0 0 0 0 0 1 0 0 0 0 0 0 0 0 1 3 0 1 2 1 2 3 2 2 1 2 0 0 0 0 0
0 0 0 0 0 0 0 0 0 0 0 0 0 0 0 0 0 1 0 0 0 0 0 0 0 0 4 1 0 1 0 0 0 0 1 1 2 0 0 0 0 0 0
0 0 0 0 0 0 0 0 0 0 0 0 0 0 0 0 0 0 0 0 0 0 0 0 1 1 0 0 0 0 0 0 0 0 2 1 0 0 0 0 0 0 0
0 0 0 0 0 0 0 0 0 0 0 0 0 0 0 0 0 0 0 0 1 0 1 2 1 0 0 0 0 0 0 0 0 0 0 1 0 1 1 1 1 0 0
0 0 0 0 0 0 0 0 0 0 0 0 0 0 0 0 0 1 2 1 1 1 1 1 0 0 0 0 0 0 0 0 0 0 0 0 0 3 1 4 4 2 0
0 0 0 0 0 0 0 0 0 0 0 0 0 0 0 0 0 2 2 3 4 5 1 0 0 0 0 0 0 0 0 0 0 0 0 0 0 2 0 1 2 1 5
0 0 0 0 0 0 0 0 0 0 0 1 2 0 2 3 3 3 5 9 1 6 0 0 0 0 0 0 0 0 0 0 0 0 0 0 0 0 0 1 1 2 3
0 0 0 0 0 0 0 0 0 0 0 0 0 0 0 4 5 7 11 0 0 0 0 0 0 0 0 0 0 0 0 0 0 0 0 0 0 0 0 0 0 0 0
0 0 0 0 0 0 0 0 0 0 0 0 0 0 0 0 0 0 0 0 0 0 0 0 0 0 0 0 0 0 0 0 0 0 0 0 0 0 0 0 0 0 0
0 0 0 0 0 0 0 1 1 1 0 0 0 0 0 0 0 0 0 0 0 0 0 0 0 0 0 0 0 0 0 0 0 0 0 0 0 0 0 0 0 0 0
0 0 0 0 0 0 0 0 0 0 0 0 0 0 2 0 0 0 0 0 0 0 0 0 0 0 0 0 0 0 0 0 0 0 0 0 0 0 0 0 0 0 0
0 0 0 0 0 0 0 0 0 0 0 0 0 0 0 0 0 0 0 0 0 0 0 0 0 0 0 0 0 0 0 0 0 0 0 0 0 0 0 0 0 0 0
0 0 0 0 0 0 0 0 0 0 0 0 0 0 0 0 0 0 0 0 0 0 0 0 0 0 0 0 0 0 0 0 0 0 0 0 0 0 0 0 0 0 0
0 0 0 0 0 0 0 0 0 0 0 0 0 0 0 0 0 0 0 0 0 0 0 0 0 0 0 0 0 0 0 0 0 0 0 0 0 0 0 0 0 0 0
0 0 0 0 0 0 0 0 0 0 0 0 0 0 0 0 0 0 0 0 0 0 0 0 0 0 0 0 0 0 0 0 0 0 0 0 0 0 0 0 0 0 0
CIN
-0 -0 -117 -318 -260 -199 -169 -175 -189 -0 -0 -0 -0 -0 -0 -0 -0 -0 -0 -0 -0 -0 -0 -0 -0 -0 -0 -0 -0 -0 -0 -0 -0 -0 -0 -0 -0 -0 -0 -0 -0 -0 -1
-0 -0 -0 -0 -2 -1 -1 -0 -0 -0 -0 -0 -0 -0 -0 -0 -0 -0 -0 -0 -0 -0 -0 -0 -0 -0 -0 -0 -0 -0 -0 -0 -0 -0 -0 -0 -0 -0 -0 -0 -0 -0 -1
-0 -0 -0 -0 -1 -1 -1 -0 -0 -0 -0 -0 -0 -0 -0 -0 -0 -0 -0 -0 -0 -0 -0 -0 -0 -0 -0 -0 -0 -0 -0 -0 -0 -0 -0 -0 -0 -0 -0 -0 -0 -0 -0
-0 -0 -0 -0 -0 -0 -0 -0 -0 -0 -0 -0 -0 -0 -0 -0 -0 -0 -0 -0 -0 -0 -0 -0 -0 -0 -0 -0 -0 -0 -0 -0 -0 -0 -0 -0 -0 -0 -0 -0 -0 -1 -0
-0 -0 -0 -0 -0 -0 -0 -0 -0 -0 -0 -0 -0 -0 -0 -0 -0 -0 -0 -0 -0 -0 -0 -0 -0 -0 -0 -0 -0 -0 -0 -0 -0 -0 -0 -0 -0 -0 -0 -0 -0 -0 -0
-0 -0 -0 -0 -0 -0 -0 -0 -0 -0 -0 -0 -0 -0 -0 -0 -0 -0 -0 -0 -0 -0 -0 -0 -0 -0 -0 -0 -0 -0 -0 -0 -0 -0 -0 -0 -0 -0 -1 -0 -0 -0 -0
-0 -0 -0 -0 -0 -0 -0 -0 -0 -0 -0 -0 -0 -0 -0 -0 -0 -0 -0 -0 -0 -0 -0 -0 -0 -0 -0 -0 -0 -0 -0 -0 -0 -0 -0 -0 -1 -0 -0 -1 -0 -0 -0
-0 -0 -0 -0 -0 -0 -0 -0 -0 -0 -0 -0 -0 -0 -0 -0 -0 -0 -0 -0 -0 -0 -0 -0 -0 -0 -0 -0 -0 -0 -0 -0 -0 -0 -0 -0 -0 -1 -4 -1 -1 -0 -0
-0 -0 -0 -0 -0 -0 -0 -0 -0 -0 -0 -0 -0 -0 -0 -0 -0 -0 -0 -0 -0 -0 -0 -0 -0 -0 -0 -0 -0 -0 -0 -0 -0 -0 -0 -0 -0 -0 -2 -1 -1 -0 -0
-0 -0 -0 -0 -0 -0 -0 -0 -0 -0 -0 -0 -0 -0 -0 -0 -0 -0 -0 -0 -0 -0 -0 -0 -0 -0 -0 -0 -0 -0 -0 -0 -0 -0 -0 -0 -0 -1 -0 -0 -5 -0 -0
-0 -0 -0 -0 -0 -0 -0 -0 -0 -0 -0 -0 -0 -0 -0 -0 -0 -0 -0 -0 -0 -0 -0 -0 -0 -0 -0 -0 -0 -0 -0 -0 -0 -0 -0 -0 -0 -0 -0 -0 -0 -0 -0
-0 -0 -0 -0 -0 -0 -0 -0 -0 -0 -0 -0 -0 -0 -0 -0 -0 -0 -0 -0 -0 -0 -0 -0 -0 -0 -0 -0 -0 -0 -0 -1 -1 -0 -0 -1 -1 -0 -0 -0 -0 -0 -0
-0 -0 -0 -0 -0 -0 -0 -0 -0 -0 -0 -0 -0 -0 -0 -0 -0 -0 -0 -0 -0 -0 -0 -0 -0 -0 -0 -0 -0 -0 -0 -0 -0 -0 -0 -0 -0 -0 -0 -0 -0 -0 -0
-0 -0 -0 -0 -0 -0 -0 -0 -0 -0 -0 -0 -0 -0 -0 -0 -0 -0 -0 -0 -0 -0 -0 -0 -0 -0 -0 -0 -0 -0 -0 -0 -0 -0 -0 -1 -0 -0 -0 -2 -1 -0 -0
-0 -0 -0 -0 -0 -0 -0 -0 -0 -0 -0 -0 -0 -0 -0 -0 -0 -0 -0 -0 -0 -0 -0 -0 -0 -0 -0 -0 -0 -0 -0 -0 -0 -0 -0 -0 -1 -0 -1 -2 -2 -0 -0
-0 -0 -0 -0 -0 -0 -0 -0 -0 -0 -0 -0 -0 -0 -0 -0 -0 -0 -0 -0 -0 -0 -0 -0 -0 -0 -0 -0 -0 -0 -0 -0 -0 -0 -0 -0 -0 -0 -0 -0 -0 -1 -0
-0 -0 -0 -0 -0 -0 -0 -0 -0 -0 -0 -0 -0 -0 -0 -0 -0 -0 -0 -0 -0 -0 -0 -0 -0 -0 -0 -0 -0 -0 -0 -0 -0 -0 -0 -0 -0 -1 -1 -0 -0 -1 -1
-0 -0 -0 -0 -0 -0 -0 -0 -0 -0 -0 -0 -0 -0 -0 -0 -0 -0 -0 -0 -0 -0 -0 -0 -0 -0 -0 -0 -0 -0 -0 -0 -0 -0 -0 -0 -0 -0 -0 -1 -1 -0 -0
-0 -0 -0 -0 -0 -0 -0 -0 -0 -0 -0 -0 -0 -0 -0 -0 -0 -0 -0 -0 -0 -0 -0 -0 -0 -0 -0 -0 -0 -0 -0 -0 -0 -0 -0 -0 -0 -1 -0 -0 -1 -1 -1
-0 -0 -0 -0 -0 -0 -0 -0 -0 -0 -0 -0 -0 -0 -0 -0 -0 -0 -0 -0 -0 -0 -0 -0 -0 -0 -0 -0 -0 -0 -0 -0 -0 -0 -0 -0 -0 -0 -0 -0 -0 -0 -1
-0 -0 -0 -0 -0 -0 -1 -0 -0 -0 -0 -0 -0 -0 -0 -0 -0 -0 -0 -0 -0 -0 -0 -0 -0 -0 -0 -0 -0 -0 -0 -0 -0 -0 -0 -0 -0 -0 -0 -0 -0 -0 -0
-0 -0 -0 -0 -0 -0 -0 -0 -0 -0 -0 -0 -0 -0 -0 -0 -0 -0 -0 -0 -0 -0 -0 -0 -0 -0 -0 -0 -0 -0 -0 -0 -0 -0 -0 -0 -0 -0 -0 -0 -0 -0 -0
-0 -0 -0 -0 -0 -0 -0 -0 -0 -0 -0 -0 -0 -0 -0 -0 -0 -0 -0 -0 -0 -0 -0 -0 -0 -0 -0 -0 -0 -0 -0 -0 -0 -0 -0 -0 -0 -0 -0 -0 -0 -0 -0
-0 -0 -0 -0 -0 -0 -0 -0 -0 -0 -0 -0 -0 -0 -0 -0 -0 -0 -0 -0 -0 -0 -0 -0 -0 -0 -0 -0 -0 -0 -0 -0 -0 -0 -0 -0 -0 -0 -0 -0 -0 -0 -0
-0 -0 -0 -0 -0 -0 -0 -0 -0 -0 -0 -0 -0 -0 -0 -0 -0 -0 -0 -0 -0 -0 -0 -0 -0 -0 -0 -0 -0 -0 -0 -0 -0 -0 -0 -0 -0 -0 -0 -0 -0 -0 -0
-0 -0 -0 -0 -0 -0 -0 -0 -0 -0 -0 -0 -0 -0 -0 -0 -0 -0 -0 -0 -0 -0 -0 -0 -0 -0 -0 -0 -0 -0 -0 -0 -0 -0 -0 -0 -0 -0 -0 -0 -0 -0 -0
Wind_Speed
15 15 15 15 16 14 13 12 11 12 12 12 12 13 13 11 10 9 9 9 9 8 6 7 6 6 4 4 2 2 2 1 2 1 1 2 2 3 4 4 4 3 4
15 15 16 14 13 14 14 12 9 11 11 13 13 13 12 12 12 10 12 11 10 9 8 8 8 5 6 5 4 4 2 2 1 1 1 1 1 2 3 3 4 3 2
12 14 14 15 15 15 14 11 9 10 11 11 12 13 14 13 12 11 11 11 10 9 9 8 9 8 6 5 4 4 3 3 3 1 2 1 1 2 2 2 3 3 1
9 10 11 9 9 10 9 10 10 10 11 12 12 13 13 13 11 12 11 11 10 8 7 7 8 7 7 7 5 4 4 3 3 3 2 3 2 2 0 2 3 1 3
9 8 8 5 6 6 7 7 7 8 9 10 10 9 8 12 10 13 12 11 11 10 7 6 5 5 6 6 4 5 5 3 2 2 2 2 1 1 2 3 4 5 5
7 6 5 4 4 4 6 7 7 7 8 9 11 11 12 8 14 16 13 11 10 10 9 7 5 6 7 7 6 3 4 4 2 1 3 3 2 2 1 3 2 4 3
6 5 5 5 6 5 5 7 8 9 9 9 10 11 11 5 19 18 14 9 9 8 9 8 6 4 6 5 8 9 8 7 7 4 5 4 2 2 2 2 4 2 5
5 5 6 6 5 5 6 7 7 8 10 10 9 8 9 8 18 17 14 9 7 7 7 7 7 7 6 5 5 5 5 4 4 3 4 5 5 4 3 2 4 3 6
7 6 6 6 5 5 3 5 6 7 7 7 8 10 11 10 18 20 13 9 8 7 6 6 6 6 9 10 5 5 4 4 6 11 11 12 11 11 8 3 3 4 4
6 6 6 6 7 6 6 6 3 6 7 8 8 6 7 11 17 18 12 7 8 6 5 5 7 6 10 11 7 4 5 4 3 3 3 4 8 7 10 6 3 6 4
5 5 5 5 7 7 6 3 5 6 7 6 7 6 7 9 12 18 15 7 7 6 6 5 4 11 11 12 10 5 5 2 5 5 5 5 5 5 4 6 6 6 6
4 4 5 6 4 5 9 6 6 7 7 7 7 5 4 5 10 16 15 9 11 7 6 5 5 12 11 11 6 9 10 7 3 4 5 5 5 5 5 6 7 6 6
4 3 2 4 5 6 8 9 7 8 7 6 6 7 5 3 5 15 15 11 11 4 4 7 9 11 12 6 8 9 4 2 4 5 5 5 4 1 1 1 3 3 4
3 3 4 4 3 3 2 3 6 7 8 8 9 8 7 6 6 6 6 7 10 6 8 5 6 6 6 3 2 4 3 3 3 4 5 4 3 3 4 4 4 4 5
3 3 3 3 3 3 2 3 3 4 7 8 8 8 10 9 9 12 11 7 6 7 6 4 4 4 3 3 3 3 2 2 4 4 5 4 4 5 5 3 5 5 6
3 2 2 2 2 2 3 3 4 1 5 7 8 7 4 7 16 18 17 14 13 13 4 4 5 4 4 4 3 3 2 4 3 1 2 3 4 4 5 4 4 5 6
4 3 3 2 2 2 3 4 4 3 5 5 8 9 10 9 16 18 17 15 14 12 4 4 3 3 3 3 3 3 3 1 2 3 4 3 3 3 4 5 5 6 7
4 4 1 2 3 3 3 4 4 4 4 3 5 6 8 12 15 17 17 13 6 9 3 3 4 3 3 4 3 3 3 2 3 3 2 2 2 3 4 5 6 6 7
5 3 2 1 1 3 4 4 4 4 3 3 2 4 3 9 12 13 14 4 6 5 4 4 4 4 4 3 3 3 2 2 2 1 2 2 3 4 4 5 5 8 7
5 7 5 2 1 0 2 3 4 4 5 5 5 5 4 4 5 6 6 4 5 3 3 4 5 4 4 4 4 4 4 4 4 4 3 2 2 4 4 4 5 6 6
4 3 4 2 1 0 1 2 3 3 4 3 3 3 7 3 2 2 2 2 2 3 3 4 4 5 5 5 5 5 4 4 4 3 2 2 2 2 2 5 5 5 6
5 4 3 2 2 1 0 1 1 1 1 2 2 2 7 4 3 3 3 3 3 3 2 3 3 4 4 5 5 5 5 5 4 4 4 3 3 4 3 4 3 4 5
5 5 4 4 3 2 0 1 1 2 2 2 2 3 3 3 4 4 3 3 4 4 4 4 4 3 4 4 4 4 5 5 4 3 3 3 4 4 4 3 3 3 3
6 5 4 3 4 3 3 2 1 2 2 1 2 2 3 3 2 3 3 3 4 4 4 4 4 6 5 5 5 5 5 4 3 4 5 5 5 5 5 5 2 3 5
6 6 5 4 4 4 3 2 2 2 2 2 2 2 2 3 3 4 3 3 3 3 4 4 4 6 7 8 7 7 7 9 6 6 5 6 7 8 6 4 5 5 5
5 5 5 4 4 4 3 4 3 3 3 2 2 2 1 2 3 3 3 4 4 5 6 5 6 8 7 6 7 8 10 11 9 10 7 7 7 7 7 7 8 6 5
Wind_Direction
217 218 214 215 212 211 214 210 202 175 173 176 173 164 161 154 155 155 147 149 146 147 150 154 146 147 149 152 175 194 198 244 261 81 68 59 331 14 22 25 4 32 41
212 213 214 212 208 207 207 203 179 179 174 177 172 162 155 161 159 164 159 158 157 157 160 156 154 164 156 162 173 194 196 171 280 272 326 6 332 17 17 37 357 12 44
220 214 211 205 202 204 199 180 155 168 169 169 165 170 163 166 162 163 159 153 155 161 164 165 159 166 162 167 174 176 184 191 207 222 275 281 271 82 4 70 346 324 33
222 222 215 202 200 192 180 170 169 165 167 168 175 169 167 161 162 147 155 150 149 155 158 161 160 170 172 167 169 170 175 185 192 207 228 249 243 99 93 20 332 337 317
221 215 224 183 183 154 147 150 145 160 169 169 158 153 160 154 160 152 158 154 151 149 149 147 156 161 152 159 164 170 183 194 186 186 241 235 235 31 347 330 316 321 292
221 230 223 153 142 146 139 135 133 150 149 154 162 156 153 170 159 155 156 152 149 152 154 149 146 145 164 172 198 208 207 196 179 188 249 239 229 193 285 322 312 321 333
200 137 138 148 158 158 153 155 155 157 155 158 163 164 148 164 161 155 147 144 147 155 153 155 154 167 165 172 203 216 236 249 242 241 253 243 248 221 128 297 296 273 272
175 174 163 163 173 168 159 167 158 157 163 162 152 155 147 158 157 155 139 135 137 143 149 159 160 162 173 169 184 203 219 224 240 238 245 260 261 239 179 262 279 284 283
170 175 162 153 139 149 171 169 156 147 142 154 159 161 154 154 164 156 142 137 139 146 149 150 149 149 171 184 188 206 230 240 244 260 259 253 256 240 201 183 246 244 282
177 162 146 147 151 174 166 175 175 163 155 139 136 135 148 143 162 165 146 140 146 146 137 134 160 157 178 194 211 191 238 247 229 259 268 271 269 229 234 213 206 252 253
128 131 137 149 158 154 146 130 149 139 128 133 131 128 142 149 163 173 163 155 157 151 157 166 170 188 193 212 209 211 238 249 266 265 257 250 229 210 210 220 198 206 239
103 130 137 135 141 142 142 136 142 146 149 147 142 129 106 136 164 179 176 167 161 156 166 158 166 186 199 213 216 246 260 268 252 256 255 260 259 239 211 209 203 205 231
99 88 84 110 140 156 153 152 150 160 164 158 164 157 153 156 170 175 176 170 169 146 139 161 171 191 212 212 246 251 246 227 237 246 251 259 252 205 111 149 185 196 236
108 111 115 131 130 120 113 169 173 183 179 174 174 173 163 166 170 163 157 165 175 162 166 166 191 196 204 181 188 223 213 226 235 247 257 277 304 271 238 226 230 201 214
95 103 113 113 150 146 136 178 214 240 214 191 192 176 166 178 188 178 170 173 173 172 147 164 187 197 172 196 206 211 217 228 231 231 231 252 269 276 276 262 237 221 237
43 61 90 113 139 130 130 84 9 217 205 212 189 166 152 158 172 182 186 186 181 179 175 202 203 181 198 203 206 212 212 229 240 286 300 275 260 265 276 277 272 235 235
44 61 68 56 90 132 154 167 149 128 119 154 161 163 166 168 175 179 184 188 194 188 207 211 200 177 191 204 208 212 227 216 53 259 258 272 281 276 286 276 273 268 256
31 52 97 148 163 175 179 185 163 164 146 135 129 139 157 158 167 177 186 185 196 200 181 201 205 174 184 199 208 220 229 239 239 251 257 267 282 274 274 277 278 281 282
9 16 358 344 181 172 165 146 145 143 151 133 106 86 155 185 182 192 195 190 192 198 181 187 195 170 182 194 203 202 207 227 252 310 273 258 258 266 264 271 280 290 288
26 16 354 356 29 180 150 156 170 168 169 172 184 191 169 176 184 192 209 192 180 176 162 192 188 173 180 187 193 200 208 210 212 214 233 260 281 281 283 284 278 282 287
17 26 6 359 335 275 206 220 198 187 197 195 193 173 178 176 188 191 197 193 199 215 202 199 190 175 182 189 194 200 209 216 214 199 204 226 236 257 266 277 279 276 277
356 7 8 7 2 350 32 46 65 141 118 133 129 155 208 187 206 209 202 192 194 200 198 195 194 197 192 195 195 203 209 213 209 200 212 200 220 241 246 256 257 268 274
359 357 4 9 16 37 318 58 163 169 164 165 162 178 201 215 192 195 197 184 188 196 189 196 194 193 196 201 211 213 218 216 209 195 208 221 237 241 242 253 263 264 269
356 358 4 7 12 347 353 356 31 354 332 257 209 209 206 220 233 212 206 200 196 198 191 193 210 212 207 204 200 206 221 230 221 211 213 230 241 245 248 250 259 259 271
354 350 354 3 358 352 339 330 333 312 296 271 257 232 223 219 224 226 219 212 211 217 213 208 217 226 226 221 218 218 224 234 221 215 217 224 241 246 249 244 251 257 255
358 351 344 343 343 347 338 324 321 319 306 292 278 284 276 250 241 237 224 215 214 218 219 216 218 221 227 232 230 231 236 237 235 234 228 227 231 238 234 237 232 238 239